Location: Park Creek Village Mobile Home Park
(38.2885°N, 122.4714°W)
Time: 10:28:32
(UTC+00:00)

Cosmos 1110 Rocket - Pass Details

Date: 14 December 2019
Orbit: 752 x 782 km, 74.0° (Epoch: 23 January)

Event Time Altitude Azimuth Distance (km) Brightness Sun altitude
Rises 13:17:58 0° 194° (SSW) 3,200 7.2 -22.9°
Reaches altitude 10° 13:20:19 10° 193° (SSW) 2,276 6.4 -22.5°
Maximum altitude 13:25:29 81° 107° (ESE) 767 4.0 -21.5°
Drops below altitude 10° 13:30:39 10° 20° (NNE) 2,282 6.5 -20.5°
Sets 13:33:01 0° 20° (NNE) 3,210 7.3 -20.1°
